Flag for Liberia Weather past 2 weeks in Kakata, Liberia

Now
75 °F

Passing clouds.


Feels Like: 74 °F
Forecast: 73 / 75 °F
Wind: No wind

Location: Roberts Field

Current Time: Sep 3, 2014 at 8:07:01 AM

Latest Report: Sep 3, 2014 at 7:30 AM


Visibility: 5 mi

Pressure: 29.92 "Hg

Humidity: 94%

Dew point: 73 °F

Location of KakataLocation

Historic Weather in Kakata — Graph

°F

Kakata temperature yesterday

Maximum temperature yesterday: 79 °F (at 2:30 PM)
Minimum temperature yesterday: 72 °F (at 11:00 AM)
Average temperature yesterday: 75 °F

Past Weeks' High & Low Weather Summary

 TemperatureHumidityPressure
High122 °F (Aug 27, 5:30 AM)100% (Aug 28, 8:00 PM)30.01 "Hg (Aug 28, 8:00 PM)
Low70 °F (Aug 26, 11:00 PM)7% (Aug 27, 5:30 AM)29.86 "Hg (Aug 29, 2:03 PM)
Average77 °F90%29.95 "Hg
* Reported Aug 19 7:00 AM — Sep 3 7:00 AM, Kakata, Weather by CustomWeather, © 2014

Note: Actual official high and low records may vary slightly from our data, if they occured in-between our weather recording intervals... More about our weather records

Advertising

Kakata weather history for previous 24 hours

 ConditionsComfort  
Time TempWeatherWind HumidityBarometerVisibility
7:00 AM
Sep 3
75 °FPassing clouds.No wind94%29.89 "Hg5 mi
6:30 AM73 °FRain. Passing clouds.No wind94%29.89 "HgN/A
6:00 AM73 °FLight rain. Passing clouds.No wind94%29.89 "Hg6 mi
5:30 AM73 °FLight rain. Passing clouds.No wind94%29.89 "Hg4 mi
1:30 AM73 °FPassing clouds.No wind94%29.92 "HgN/A
1:00 AM73 °FPassing clouds.No wind94%29.92 "HgN/A
12:30 AM73 °FPassing clouds.No wind94%29.92 "HgN/A
12:00 AM73 °FPassing clouds.No wind94%29.95 "HgN/A
11:30 PM
Sep 2
73 °FPassing clouds.No wind94%29.98 "HgN/A
11:00 PM73 °FPassing clouds.No wind94%29.95 "HgN/A
9:30 PM73 °FPassing clouds.No wind94%29.95 "HgN/A
8:30 PM73 °FPartly cloudy.No wind94%29.95 "HgN/A
7:30 PM75 °FBroken clouds.No wind94%29.95 "HgN/A
7:00 PM75 °FBroken clouds.No wind94%29.92 "HgN/A
6:30 PM75 °FPartly sunny.No wind94%29.92 "HgN/A
6:00 PM75 °FBroken clouds.No wind89%29.92 "HgN/A
5:30 PM77 °FBroken clouds.No wind89%29.92 "HgN/A
4:30 PM77 °FBroken clouds.No wind89%29.89 "HgN/A
4:00 PM77 °FPartly sunny.No wind89%29.89 "HgN/A
3:30 PM77 °FPartly sunny.8 mph83%29.92 "HgN/A
3:00 PM77 °FPartly sunny.No wind83%29.92 "HgN/A
2:30 PM79 °FPartly sunny.7 mph84%29.89 "HgN/A
2:00 PM77 °FPartly sunny.5 mph83%29.89 "HgN/A
1:30 PM75 °FPartly sunny.No wind89%29.89 "HgN/A
1:00 PM75 °FPartly sunny.No wind94%29.95 "HgN/A
12:30 PM73 °FPartly sunny.No wind94%29.95 "HgN/A
12:00 PM73 °FThunderstorms. Partly sunny.No wind94%29.95 "HgN/A
11:30 AM72 °FThunderstorms. Partly sunny.No wind94%29.95 "Hg6 mi
11:00 AM72 °FThunderstorms. Broken clouds.No wind94%29.95 "Hg4 mi
Weather by CustomWeather, © 2014

See weather overviewHow to use our weather pages